Weather History for KSGF - October, 2012

Change the Weather History Date:

Tuesday, October 23, 2012

  Actual Average Record
Temperature  
Mean Temperature 69 °F 56 °F  
Max Temperature 77 °F 67 °F 88 °F (1939)
Min Temperature 60 °F 45 °F 24 °F (1937)
Degree Days  
Heating Degree Days 0 10  
Month to date heating degree days 208 163  
Since 1 July heating degree days 249 218  
Cooling Degree Days 4 0  
Month to date cooling degree days 14 27  
Year to date cooling degree days 1757 1386  
Growing Degree Days 18 (Base 50)    
Moisture  
Dew Point 60 °F    
Average Humidity 77    
Maximum Humidity 93    
Minimum Humidity 60    
Precipitation  
Precipitation 0.41 in 0.11 in 1.29 in (1943)
Month to date precipitation 4.26 2.66  
Year to date precipitation 28.78 37.38  
Snow  
Snow 0.00 in - - ()
Month to date snowfall 0.0  
Since 1 July snowfall 0.0  
Since 1 September snowfall 0.0  
Snow Depth 0.00 in    
Sea Level Pressure  
Sea Level Pressure 29.88 in    
Wind  
Wind Speed 13 mph (South)    
Max Wind Speed 24 mph    
Max Gust Speed 30 mph    
Visibility 10 miles    
Events Rain , Thunderstorm    
T = Trace of Precipitation, MM = Missing Value Source: NWS Daily Summary

Daily Weather History Graph

Daily Weather History Graph

Search for Another Location

Airport or City:

Trip Planner

Search our weather history database for the weather conditions in past years. The results will help you decide how hot, cold, wet, or windy it might be!

Date:

Astronomy

Oct. 23, 2012 Rise Set
Actual Time 7:29 AM CDT 6:25 PM CDT
Civil Twilight 7:02 AM CDT 6:52 PM CDT
Nautical Twilight 6:32 AM CDT 7:22 PM CDT
Astronomical Twilight 6:02 AM CDT 7:52 PM CDT
Moon 3:02 PM CDT (10/23) 1:29 AM CDT (10/23)
Length of Visible Light 11h 49m
Length of Day
10h 55m
Waxing Gibbous, 67% of the Moon is Illuminated
Oct 23
Waxing Gibbous
Oct 29
Full
Nov 6
Last Quarter
Nov 13
New
Nov 20
First Quarter

Hourly Weather History & Observations

Time (CDT) Temp. Dew Point Humidity Pressure Visibility Wind Dir Wind Speed Gust Speed Precip Events Conditions
1:52 AM 64.9 °F 62.1 °F 90% 29.92 in 6.0 mi SSW 8.1 mph - 0.14 in Rain , Thunderstorm Thunderstorms and Rain
2:52 AM 60.1 °F 57.9 °F 93% 29.92 in 3.0 mi SSE 5.8 mph - 0.13 in Rain , Thunderstorm Heavy Thunderstorms and Rain
3:45 AM 60.8 °F 57.2 °F 88% 29.93 in 10.0 mi SE 6.9 mph - 0.15 in   Overcast
3:52 AM 61.0 °F 57.9 °F 90% 29.91 in 10.0 mi SE 10.4 mph - 0.15 in   Overcast
4:52 AM 61.0 °F 57.9 °F 90% 29.90 in 10.0 mi SE 11.5 mph - N/A   Overcast
5:52 AM 62.1 °F 57.9 °F 86% 29.90 in 10.0 mi SSE 13.8 mph - N/A   Mostly Cloudy
6:52 AM 62.1 °F 57.9 °F 86% 29.89 in 10.0 mi SSE 15.0 mph - N/A   Clear
7:52 AM 62.6 °F 57.2 °F 82% 29.92 in 10.0 mi SSE 13.8 mph - N/A   Clear
8:52 AM 64.0 °F 57.9 °F 80% 29.90 in 10.0 mi SSE 15.0 mph 21.9 mph N/A   Clear
9:52 AM 68.0 °F 60.8 °F 78% 29.92 in 10.0 mi South 17.3 mph - N/A   Clear
10:52 AM 72.0 °F 62.1 °F 71% 29.89 in 10.0 mi South 17.3 mph - N/A   Clear
11:52 AM 75.0 °F 61.0 °F 62% 29.88 in 10.0 mi SSW 19.6 mph 27.6 mph N/A   Clear
12:52 PM 75.0 °F 62.1 °F 64% 29.88 in 10.0 mi SW 21.9 mph 26.5 mph N/A   Mostly Cloudy
1:52 PM 75.9 °F 63.0 °F 64% 29.86 in 10.0 mi SSW 18.4 mph - N/A   Scattered Clouds
2:52 PM 77.0 °F 64.0 °F 64% 29.85 in 10.0 mi SSW 12.7 mph 20.7 mph N/A   Partly Cloudy
3:52 PM 77.0 °F 64.0 °F 64% 29.83 in 10.0 mi SSW 12.7 mph - N/A   Clear
4:52 PM 77.0 °F 63.0 °F 62% 29.83 in 10.0 mi SSW 15.0 mph 24.2 mph N/A   Clear
5:52 PM 75.0 °F 61.0 °F 62% 29.84 in 10.0 mi South 15.0 mph - N/A   Clear
6:52 PM 70.0 °F 61.0 °F 73% 29.85 in 10.0 mi SSW 9.2 mph - N/A   Clear
7:52 PM 66.9 °F 60.1 °F 79% 29.86 in 10.0 mi South 8.1 mph - N/A   Clear
8:52 PM 69.1 °F 57.9 °F 68% 29.87 in 10.0 mi South 11.5 mph - N/A   Clear
9:52 PM 68.0 °F 57.0 °F 68% 29.89 in 10.0 mi South 10.4 mph - N/A   Partly Cloudy
10:52 PM 69.1 °F 57.0 °F 65% 29.90 in 10.0 mi South 9.2 mph - N/A   Overcast
11:52 PM 69.1 °F 57.0 °F 65% 29.89 in 10.0 mi SSE 13.8 mph - N/A   Overcast